CW7352 Weather Reports


time (UTC)temp
C
wind
direction
speed
KPH
gust
KPH
rain 1hr
cm
rain 24hr
cm
rain mn
cm
humidity
%
barometer
mb
20260507052003 6 0 0.0 0.0 0.00 0.00 0.00 90 1015.4
20260507051217 5 0 0.0 0.0 0.00 0.00 0.00 89 1015.4
20260507050217 4 0 0.0 0.0 0.00 0.00 0.00 89 1015.3
20260507045003 3 0 0.0 0.0 0.00 0.00 0.00 88 1015.2
20260507044003 3 0 0.0 0.0 0.00 0.00 0.00 87 1015.2
20260507043003 3 0 0.0 0.0 0.00 0.00 0.00 87 1015.0
20260507042003 3 0 0.0 0.0 0.00 0.00 0.00 86 1015.0
20260507041003 2 0 0.0 0.0 0.00 0.00 0.00 86 1014.9
20260507040217 2 0 0.0 0.0 0.00 0.00 0.00 85 1014.8
20260507035003 2 0 0.0 0.0 0.00 0.00 0.00 84 1014.7
20260507034216 2 0 0.0 0.0 0.00 0.00 0.00 84 1014.7
20260507033003 2 0 0.0 0.0 0.00 0.00 0.00 83 1014.6
20260507032003 2 0 0.0 0.0 0.00 0.00 0.00 83 1014.6
20260507031003 2 0 0.0 0.0 0.00 0.00 0.00 82 1014.5
20260507030003 2 0 0.0 0.0 0.00 0.00 0.00 82 1014.5
20260507025003 2 0 0.0 0.0 0.00 0.00 0.00 81 1014.4
20260507024003 2 0 0.0 0.0 0.00 0.00 0.00 81 1014.4
20260507023003 2 0 0.0 0.0 0.00 0.00 0.00 80 1014.4
20260507022003 3 0 0.0 0.0 0.00 0.00 0.00 80 1014.4
20260507021003 3 0 0.0 0.0 0.00 0.00 0.00 80 1014.4
20260507020003 3 0 0.0 0.0 0.00 0.00 0.00 79 1014.4
20260507015003 3 0 0.0 0.0 0.00 0.00 0.00 78 1014.4
20260507014003 3 0 0.0 0.0 0.00 0.00 0.00 77 1014.3
20260507013003 3 0 0.0 0.0 0.00 0.00 0.00 77 1014.3
20260507012003 4 0 0.0 0.0 0.00 0.00 0.00 76 1014.3
20260507010003 5 0 0.0 0.0 0.00 0.00 0.00 75 1014.3
20260507005217 5 0 0.0 0.0 0.00 0.00 0.00 75 1014.3
20260507004003 5 0 0.0 0.0 0.00 0.00 0.00 74 1014.2
20260507003003 5 0 0.0 0.0 0.00 0.00 0.00 73 1014.2
20260507002003 6 0 0.0 0.0 0.00 0.00 0.00 72 1014.2
20260507001003 6 0 0.0 0.0 0.00 0.00 0.00 71 1014.1
20260507000003 6 0 0.0 0.0 0.00 0.00 0.00 70 1014.1
20260506235217 6 0 0.0 0.0 0.00 0.00 0.00 69 1013.9
20260506234217 6 0 0.0 0.0 0.00 0.00 0.00 68 1013.9
20260506233003 6 0 0.0 0.0 0.00 0.00 0.00 66 1013.9
20260506232003 7 0 0.0 0.0 0.00 0.00 0.00 66 1013.9
20260506231003 7 0 0.0 0.0 0.00 0.00 0.00 64 1013.9
20260506230003 7 92 1.6 1.6 0.00 0.00 0.00 64 1013.8
20260506225003 7 175 1.6 1.6 0.00 0.00 0.00 64 1013.7
20260506224217 7 0 0.0 0.0 0.00 0.00 0.00 63 1013.7
20260506223216 7 0 3.2 3.2 0.00 0.00 0.00 64 1013.6
20260506222003 7 172 0.0 3.2 0.00 0.00 0.00 65 1013.7
20260506221003 7 178 1.6 11.3 0.00 0.00 0.00 66 1013.7
20260506220004 7 184 1.6 9.7 0.00 0.00 0.00 65 1013.7
20260506215003 6 182 11.3 11.3 0.00 0.00 0.00 66 1013.7
20260506214003 7 164 9.7 9.7 0.00 0.00 0.00 66 1013.6
20260506213003 7 226 3.2 3.2 0.00 0.00 0.00 67 1013.5
20260506212003 7 199 8.0 8.0 0.00 0.00 0.00 67 1013.6
20260506211218 7 178 9.7 9.7 0.00 0.00 0.00 68 1013.5
20260506210003 7 0 0.0 0.0 0.00 0.00 0.00 70 1013.4
20260506205003 8 0 0.0 0.0 0.00 0.00 0.00 71 1013.3
20260506204003 8 0 0.0 0.0 0.00 0.00 0.00 73 1013.4
20260506203218 8 0 0.0 0.0 0.00 0.00 0.00 74 1013.3
20260506202003 9 0 0.0 0.0 0.00 0.00 0.00 75 1013.2
20260506201003 10 0 0.0 0.0 0.00 0.00 0.00 76 1013.1
20260506200003 10 0 0.0 0.0 0.00 0.00 0.00 76 1013.1
20260506195003 10 0 0.0 0.0 0.00 0.00 0.00 76 1013.0
20260506194003 10 0 0.0 0.0 0.00 0.00 0.00 75 1013.0
20260506193003 10 0 0.0 0.0 0.00 0.00 0.00 74 1012.9
20260506192003 10 0 0.0 0.0 0.00 0.00 0.00 74 1012.8
20260506191003 11 0 0.0 0.0 0.00 0.00 0.00 73 1012.7
20260506190003 11 0 0.0 0.0 0.00 0.00 0.00 73 1012.6
20260506185217 11 0 0.0 0.0 0.00 0.00 0.00 73 1012.5
20260506184003 11 0 0.0 0.0 0.00 0.00 0.00 73 1012.4
20260506183003 11 0 0.0 0.0 0.00 0.00 0.00 73 1012.3
20260506182003 11 0 0.0 0.0 0.00 0.00 0.00 73 1012.1
20260506181003 11 0 0.0 0.0 0.00 0.00 0.00 72 1012.0
20260506180004 11 0 0.0 0.0 0.00 0.00 0.00 71 1012.0
20260506175217 12 0 0.0 0.0 0.00 0.00 0.00 70 1011.9
20260506174003 12 0 0.0 0.0 0.00 0.00 0.00 68 1011.8
20260506173003 12 0 0.0 0.0 0.00 0.00 0.00 66 1011.8
20260506172003 12 0 0.0 0.0 0.00 0.00 0.00 65 1011.8
20260506171217 12 321 1.6 1.6 0.00 0.00 0.00 64 1011.7
20260506170216 12 355 8.0 8.0 0.00 0.00 0.00 63 1011.7
20260506165003 12 331 3.2 3.2 0.00 0.00 0.00 65 1011.6
20260506164216 12 338 3.2 3.2 0.00 0.00 0.00 64 1011.6
20260506163003 12 337 6.4 6.4 0.00 0.00 0.00 63 1011.7
20260506162003 12 9 8.0 8.0 0.00 0.00 0.00 64 1011.7
20260506161218 12 9 8.0 8.0 0.00 0.00 0.00 64 1011.6
20260506160003 12 325 6.4 6.4 0.00 0.00 0.00 63 1011.6
20260506155003 13 265 3.2 3.2 0.00 0.00 0.00 63 1011.6
20260506154003 13 0 3.2 3.2 0.00 0.00 0.00 64 1011.6
20260506153003 12 311 9.7 9.7 0.00 0.00 0.00 65 1011.6
20260506152003 12 0 0.0 0.0 0.00 0.00 0.00 64 1011.6
20260506151218 12 319 8.0 8.0 0.00 0.00 0.00 65 1011.6
20260506150003 12 0 1.6 1.6 0.00 0.00 0.00 65 1011.6
20260506145003 12 354 6.4 6.4 0.00 0.00 0.00 67 1011.5
20260506144003 12 360 1.6 1.6 0.00 0.00 0.00 66 1011.4
20260506143003 12 360 12.9 12.9 0.00 0.00 0.00 65 1011.5
20260506142217 12 360 8.0 8.0 0.00 0.00 0.00 64 1011.5
20260506141003 12 344 11.3 11.3 0.00 0.00 0.00 66 1011.6
20260506140003 12 0 0.0 0.0 0.00 0.00 0.00 64 1011.5
20260506135003 13 347 6.4 6.4 0.00 0.00 0.00 64 1011.5
20260506134003 13 323 8.0 8.0 0.00 0.00 0.00 62 1011.3
20260506133003 13 0 0.0 0.0 0.00 0.00 0.00 62 1011.3
20260506132003 13 354 9.7 9.7 0.00 0.00 0.00 63 1011.2
20260506131003 13 0 0.0 0.0 0.00 0.00 0.00 61 1011.1
20260506130003 14 0 0.0 0.0 0.00 0.00 0.00 60 1011.1
20260506125003 15 0 0.0 0.0 0.00 0.00 0.00 57 1011.1
20260506124003 16 360 0.0 9.7 0.00 0.00 0.00 55 1011.0
20260506123003 16 360 0.0 1.6 0.00 0.00 0.00 52 1011.0
20260506122003 16 134 0.0 1.6 0.00 0.00 0.00 49 1011.0
20260506121003 17 85 0.0 9.7 0.00 0.00 0.00 46 1011.0
20260506120216 17 103 1.6 1.6 0.00 0.00 0.00 45 1011.0
20260506115003 17 36 1.6 16.1 0.00 0.00 0.00 45 1011.0
20260506114003 17 110 1.6 16.1 0.00 0.00 0.00 46 1011.0
20260506113003 17 87 1.6 17.7 0.00 0.00 0.00 45 1011.0
20260506112003 17 111 1.6 17.7 0.00 0.00 0.00 45 1011.1
20260506111003 17 120 1.6 17.7 0.00 0.00 0.00 49 1011.2
20260506110003 17 91 4.8 19.3 0.00 0.00 0.00 48 1011.2
20260506105003 16 52 3.2 22.5 0.00 0.00 0.00 50 1011.2
20260506104003 16 32 9.7 9.7 0.00 0.00 0.00 52 1011.3
20260506103218 16 15 0.0 8.0 0.00 0.00 0.00 49 1011.2
20260506102003 16 28 6.4 6.4 0.00 0.00 0.00 52 1011.2
20260506101003 15 31 8.0 8.0 0.00 0.00 0.00 53 1011.2
20260506100003 15 303 6.4 6.4 0.00 0.00 0.00 55 1011.3
20260506095003 14 322 6.4 6.4 0.00 0.00 0.00 54 1011.4
20260506094218 14 319 6.4 6.4 0.00 0.00 0.00 55 1011.4
20260506093003 14 360 1.6 1.6 0.00 0.00 0.00 58 1011.4
20260506092003 13 310 8.0 8.0 0.00 0.00 0.00 59 1011.4
20260506091003 13 308 6.4 6.4 0.00 0.00 0.00 59 1011.4
20260506090003 12 328 6.4 6.4 0.00 0.00 0.00 58 1011.5
20260506085003 12 0 0.0 0.0 0.00 0.00 0.00 58 1011.4
20260506084003 12 313 8.0 8.0 0.00 0.00 0.00 59 1011.3
20260506083003 12 332 1.6 1.6 0.00 0.00 0.00 58 1011.4
20260506082003 12 46 9.7 9.7 0.00 0.00 0.00 56 1011.4
20260506081217 11 61 9.7 9.7 0.00 0.00 0.00 57 1011.4
20260506080217 11 41 16.1 16.1 0.00 0.00 0.00 58 1011.4
20260506073003 10 91 11.3 11.3 0.00 0.00 0.00 59 1011.6
20260506072003 9 46 0.0 8.0 0.00 0.00 0.00 60 1011.5
20260506071217 8 79 1.6 12.9 0.00 0.00 0.00 60 1011.5
20260506062003 6 60 12.9 12.9 0.00 0.00 0.00 63 1011.8
20260506061216 6 0 8.0 8.0 0.00 0.00 0.00 65 1011.8